Regional Weather Roundup
Issued by NWS

Home | Current Version | Previous Version | Graphics & Text | Print | Product List | Glossary On
Versions: 1 2 3 4 5 6 7 8 9 10 11 12 13 14 15 16 17 18 19 20 21 22 23 24 25 26 27 28 29 30 31 32 33 34 35 36 37 38 39 40 41 42 43 44 45 46 47 48 49 50
102
ASUS44 KLIX 270405
RWRLA
LOUISIANA WEATHER ROUNDUP
NATIONAL WEATHER SERVICE NEW ORLEANS LA
1100 PM CDT TUE AUG 26 2014

NOTE: "FAIR" INDICATES FEW OR NO CLOUDS BELOW 12,000 FEET WITH NO
      SIGNIFICANT WEATHER AND/OR OBSTRUCTIONS TO VISIBILITY.
      SKY/WX - SKY CONDITION AND SIGNIFICANT WEATHER.
      TMP - AIR TEMPERATURE.    DP   - DEWPOINT TEMPERATURE.
      RH  - RELATIVE HUMIDITY.  PRES - PRESSURE.
      HX  - HEAT INDEX.         WCI  - WIND CHILL INDEX.

*  THESE STATIONS ARE NOT NWS OR FAA STATIONS AND ARE NOT UNDER
   NWS QUALITY CONTROL.

LAZ040-048-061>063-065-066-069-270500-
SOUTHEAST LOUISIANA

CITY           SKY/WX    TMP DP  RH WIND       PRES   REMARKS
N.O. AUDUBON     N/A     81  76  82 MISG        N/A
N.O. INTL ARPT PTCLDY    82  72  71 CALM      29.98S
N.O. LAKEFRONT PTCLDY    83  73  72 E7        29.98S
N.O. DOWNTOWN* FAIR      82  72  69 CALM      29.98S
SLIDELL        PTCLDY    76  73  91 N3        29.98S
BATON ROUGE    CLEAR     77  74  90 CALM      29.99S
BOOTHVILLE     PTCLDY    83  77  82 E6        29.97S
BELLE CHASSE   MOCLDY    78  73  84 NE3       29.97S
BOGALUSA*      FAIR      75  70  84 CALM      30.01S
GALLIANO*      NOT AVBL
NEW ROADS*     FAIR      75  73  91 CALM      30.00R
GONZALES*      FAIR      76  76 100 CALM      29.98S
HAMMOND*       CLEAR     77  72  83 CALM      30.01S
HOUMA*         PTCLDY    76  71  84 NE3       29.97S
PORT FOURCHON* MOCLDY    82  75  78 E9G16     29.97S

$$

LAZ041-044-053-054-270500-
SOUTHWEST LOUISIANA

CITY           SKY/WX    TMP DP  RH WIND       PRES   REMARKS
LAKE CHARLES   MOCLDY    79  75  87 E3        29.98R
LAFAYETTE      PTCLDY    78  75  90 NE3       29.99R
PATTERSON        N/A     77  75  94 NE3       30.00S
SALT POINT       N/A     80  77  90 CALM      29.96S
NEW IBERIA     PTCLDY    79  74  84 NE6       29.99R
CHENAULT AIRPK MOCLDY    79  74  85 NE3       29.99S

$$

LAZ027-028-270500-
CENTRAL LOUISIANA

CITY           SKY/WX    TMP DP  RH WIND       PRES   REMARKS
FORT POLK      MOCLDY    79  68  69 E5        30.00S
ALEXANDRIA INT MOCLDY    78  69  73 NE5       29.99R
ALEXANDRIA     MOCLDY    74  71  91 CALM      30.01R

$$

LAZ001-002-270500-
NORTHWEST LOUISIANA

CITY           SKY/WX    TMP DP  RH WIND       PRES   REMARKS
SHREVEPORT     PTCLDY    81  70  69 E3        30.02R
BARKSDALE AFB  PTCLDY    78  70  77 NE3       30.02R
DTN SHREVEPORT PTCLDY    80  73  79 CALM      30.02R

$$

LAZ014-016-270500-
NORTHEAST LOUISIANA

CITY           SKY/WX    TMP DP  RH WIND       PRES   REMARKS
MONROE         PTCLDY    72  68  87 CALM      30.02S
TALLULAH       PTCLDY    68  66  93 CALM      30.01F

$$




USA.gov is the U.S. government's official web portal to all federal, state and local government web resources and services.